Regional Weather Roundup
Issued by NWS Sterling, VA

Home | Current Version | Previous Version | Text Only | Print | Product List | Glossary Off
Versions: 1 2 3 4 5 6 7 8 9 10 11 12 13 14 15 16 17 18 19 20 21 22 23 24 25 26 27

000
ASUS41 KLWX 251211
RWRLWX

REGIONAL WEATHER ROUNDUP
NATIONAL WEATHER SERVICE BALTIMORE MD/WASHINGTON DC
800 AM EDT TUE APR 25 2017

Note: "FAIR" indicates few or no clouds below 12,000 feet
with no significant weather and/or obstructions to visibility.
 TC=TEMPERATURE CELSIUS

 * =Non NWS site. Station does not report precipitation (e.g. rain,
    snow, etc.), thunder, or fog.

DCZ001-MDZ009-015-VAZ040>042-051-053>054-251300-
WASHINGTON METRO

CITY           SKY/WX    TMP DP  RH WIND       PRES   REMARKS
WASHINGTON NAT DRIZZLE   56  56 100 NE16      29.88S FOG
DULLES         FOG       54  52  93 NE10      29.90R VSB 1
ANDREWS AFB    CLOUDY    55  54  98 NE15      29.86S
FT BELVOIR     CLOUDY    55  53  93 N7        29.86F
QUANTICO       CLOUDY    57  56  96 NE22G30   29.86S
COLLEGE PARK*  CLOUDY    55  53  94 NE7G16    29.89S
LEESBURG*      CLOUDY    52  52 100 NE9       29.92S FOG
MANASSAS*      LGT RAIN  54  54 100 NE9       29.88S FOG

$$

MDZ006>007-011-014-251300-
BALTIMORE METRO

CITY           SKY/WX    TMP DP  RH WIND       PRES   REMARKS
BWI AIRPORT    CLOUDY    55  55 100 NE14      29.91S
MD SCIENCE CTR   N/A     57  52  83 MISG      29.93R
MARTIN STATE   CLOUDY    55  55 100 NE6       29.94R
ANNAPOLIS      CLOUDY    57  55  93 NE9       29.90S
FORT MEADE*    CLOUDY    54  52  94 NE8G20    29.93S

$$

MDZ012-015-019>023-251300-
MARYLAND EASTERN SHORE

CITY           SKY/WX    TMP DP  RH WIND       PRES   REMARKS
OCEAN CITY     CLOUDY    57  55  93 E13       29.83F
SALISBURY      LGT RAIN  59  59 100 NE13      29.83F
BAY BRIDGE AP* CLOUDY    55  54  94 E13G20    29.90R FOG
CAMBRIDGE*     PTSUNNY   57  55  94 NE12      29.85F
EASTON*        CLOUDY    57  55  94 E13G18    29.91F

$$

MDZ017>025-251300-
SOUTHERN MARYLAND

CITY           SKY/WX    TMP DP  RH WIND       PRES   REMARKS
PATUXENT RIVER RAIN      57  57 100 NE16      29.81F FOG
ST INIGOES     RAIN      58  57  97 NE16G22   29.79F FOG
LEONARDTOWN*   CLOUDY    55  54  94 NE6       29.83S

$$

MDZ003>005-251300-
NORTH CENTRAL MARYLAND

CITY           SKY/WX    TMP DP  RH WIND       PRES   REMARKS
FREDERICK*     CLOUDY    54  54 100 NE12      29.97R
HAGERSTOWN APT CLOUDY    53  50  89 NE9G17    29.94R
WESTMINSTER*   NOT AVBL

$$

MDZ501>502-251300-
WESTERN MARYLAND

CITY           SKY/WX    TMP DP  RH WIND       PRES   REMARKS
OAKLAND*       FOG       43  43 100 E13       29.91R VSB<1/4
CUMBERLAND*    CLOUDY    54  46  76 N3        29.99R

$$

VAZ025>031-251300-
SHENANDOAH VALLEY

CITY           SKY/WX    TMP DP  RH WIND       PRES   REMARKS
WINCHESTER*    CLOUDY    46  45  93 N5        29.92R
FRONT ROYAL*   CLOUDY    48  48 100 N5        29.91R
LURAY*         LGT RAIN  50  50 100 N10G21    29.89R
NEW MARKET*    CLOUDY    49  47  95 N9        29.88S
STAUNTON*      DRIZZLE   48  47  97 N14       29.87S
WAYNESBORO*    CLOUDY    47  47 100 N9        29.85S

$$

WVZ021-048>050-054>055-251300-
EASTERN WEST VIRGINIA PANHANDLE

CITY           SKY/WX    TMP DP  RH WIND       PRES   REMARKS
MARTINSBURG    CLOUDY    50  46  86 N9        29.92R
PETERSBURG*    CLOUDY    49  49  97 N3        29.94S FOG

$$

VAZ036>039-050-251300-
CENTRAL FOOTHILLS

CITY           SKY/WX    TMP DP  RH WIND       PRES   REMARKS
CHARLOTTESVILL LGT RAIN  54  52  93 NE15      29.82F FOG
CULPEPER*      RAIN      54  53  99 N9        29.88R
ORANGE*        DRIZZLE   52  52 100 NE8G16    29.84S
GORDONSVILLE*  CLOUDY    52  52 100 NE13G21   29.82S FOG
WARRENTON*     DRIZZLE   54  50  89 N9        29.87R

$$

VAZ055>057-251300-
NORTH AND CENTRAL PIEDMONT

CITY           SKY/WX    TMP DP  RH WIND       PRES   REMARKS
FREDERICKSBRG* DRIZZLE   55  55 100 N14G21    29.82F
STAFFORD*      DRIZZLE   54  54 100 N12G18    29.88F

$$

NCZ024-NYZ072-PAZ021-071-VAZ022-071-251300-
OTHER REGIONAL OBSERVATIONS

CITY           SKY/WX    TMP DP  RH WIND       PRES   REMARKS
NEW YORK CITY  CLOUDY    50  48  93 E14G23    30.12R
PHILADELPHIA   CLOUDY    53  51  93 NE14G22   29.99F FOG
PITTSBURGH     LGT RAIN  50  49  96 E7        29.91R
ROANOKE        CLOUDY    51  50  96 N12       29.80R
RICHMOND       LGT RAIN  59  58  96 NE16G24   29.70F FOG
RALEIGH        RAIN      59  57  93 NE10      29.63R FOG

$$

ANZ530>537-251300-
MARINE OBSERVATIONS

STATION/POSITION TIME  TEMP    WIND        PRES
                       AIR SEA DIR/SP/G
                 (UTC) (F)     (DEG/KT/KT) (MB)
THOMAS PT LIGHT  1200   56 56   40/ 16/ 17   N/A
BALT KEY BRIDGE  1148   55      40/ 14/ 18 1012.9R
COVE POINT       1148   57      70/ 16/ 20 1010.9R
LEWISETTA        1148   58 61   60/ 16/ 26 1007.9F
SOLOMONS ISLAND  1148   57 60   40/ 14/ 18   N/A
PINEY POINT      1142           70/ 15/ 18   N/A

$$





USA.gov is the U.S. government's official web portal to all federal, state and local government web resources and services.